Regional Weather Roundup
Issued by NWS

Home | Current Version | Previous Version | Text Only | Print | Product List | Glossary Off
Versions: 1 2 3 4 5 6 7 8 9 10 11 12 13 14 15 16 17 18 19 20 21 22 23 24 25 26 27 28 29 30 31 32 33 34 35 36 37 38 39 40 41 42 43 44 45 46 47 48 49 50

000
ASUS43 KFSD 300802
RWRSD

WEATHER ROUNDUP FOR SOUTH DAKOTA
NATIONAL WEATHER SERVICE SIOUX FALLS SD
200 AM CST FRI JAN 30 2015

NOTE: "FAIR" INDICATES FEW OR NO CLOUDS BELOW 12,000 FEET WITH NO
SIGNIFICANT WEATHER AND/OR OBSTRUCTIONS TO VISIBILITY.


SDZ001>005-009-010-012>017-300900-
NORTHWEST AND NORTH CENTRAL SOUTH DAKOTA

CITY           SKY/WX    TMP DP  RH WIND       PRES   REMARKS
BUFFALO          N/A     25  16  68 S9        30.18F WCI  15
FAITH            N/A     22  16  78 S17       30.29F WCI   8
MOBRIDGE       CLEAR     20  17  88 S13       30.36F WCI   7
$$

SDZ012>016-024>037-041>051-057-063-072>074-300900-
SOUTHWEST AND SOUTH CENTRAL SOUTH DAKOTA

CITY           SKY/WX    TMP DP  RH WIND       PRES   REMARKS
RAPID CTY ARPT PTCLDY    22  13  68 SE5       30.26F WCI  16
PIERRE         CLEAR     21  18  88 SE13      30.39F WCI   9
CUSTER         CLEAR     27  15  61 W6        30.24F WCI  20
ELLSWORTH AFB  CLEAR     28  14  57 S9        30.24F WCI  19
PHILIP         CLEAR     20  15  81 E8        30.34F WCI  10
PINE RIDGE     PTCLDY    32  16  51 SW7       30.30F WCI  26
WINNER         FAIR      24  19  81 SE14      30.42F WCI  12
$$

SDZ004>011-016>023-039-040-300900-
NORTHEAST SOUTH DAKOTA

CITY           SKY/WX    TMP DP  RH WIND       PRES   REMARKS
ABERDEEN       CLEAR     16  12  84 S3        30.48F
WATERTOWN      CLOUDY    18  13  80 S5        30.46F WCI  11
SISSETON         N/A     13  10  88 SE8       30.51F WCI   2
$$

SDZ017-020-022-023-036>040-048>070-300900-
SOUTHEAST SOUTH DAKOTA

CITY           SKY/WX    TMP DP  RH WIND       PRES   REMARKS
SIOUX FALLS    CLOUDY    20  15  81 SE3       30.50F
HURON          CLEAR     19  15  84 S7        30.50F WCI  10
MITCHELL       CLEAR     19  16  88 S6        30.52F WCI  11
YANKTON        CLEAR     19  18  93 CALM      30.54S
$$

ABBREVIATIONS USED IN REMARKS
   TC - TEMPERATURE IN CELSIUS
  WCI - WIND CHILL INDEX
   HX - HEAT INDEX
  VSB - VISIBILITY




USA.gov is the U.S. government's official web portal to all federal, state and local government web resources and services.